Cloquet, MN

8:29 PM CST on December 09, 2019 (GMT -0600)
Cloquet Carlton County

Weather History for KCOQ - October, 2019

Change the Weather History Date:

Tuesday, October 22, 2019

  Actual Average Record
Temperature  
Mean Temperature 40 °F -  
Max Temperature 44 °F 47 °F 66 °F (1998)
Min Temperature 35 °F 33 °F 24 °F (2002)
Degree Days  
Heating Degree Days 26    
Moisture  
Dew Point 37 °F    
Average Humidity 91    
Maximum Humidity 100    
Minimum Humidity 81    
Precipitation  
Precipitation 0.07 in - - ()
Sea Level Pressure  
Sea Level Pressure 29.31 in    
Wind  
Wind Speed 12 mph ()    
Max Wind Speed 23 mph    
Max Gust Speed 32 mph    
Visibility 6.9 miles    
Events Rain    
Averages and records for this station are not official NWS values.
T = Trace of Precipitation, MM = Missing Value Source: Averaged Metar Reports

Daily Weather History Graph

Daily Weather History Graph

Search for Another Location

Airport or City:

Astronomy

Oct. 22, 2019 Rise Set
Actual Time 7:37 AM CDT 6:10 PM CDT
Civil Twilight 7:06 AM CDT 6:41 PM CDT
Nautical Twilight 6:31 AM CDT 7:17 PM CDT
Astronomical Twilight 5:56 AM CDT 7:52 PM CDT
Moon 12:16 AM CDT (10/22) 3:48 PM CDT (10/22)
Length of Visible Light 11h 35m
Length of Day
10h 33m
Last Quarter, 37% of the Moon is Illuminated
Oct 22
Last Quarter
Oct 27
New
Nov 4
First Quarter
Nov 12
Full
Nov 19
Last Quarter

Hourly Weather History & Observations

Time (CDT) Temp. Windchill Dew Point Humidity Pressure Visibility Wind Dir Wind Speed Gust Speed Precip Events Conditions
12:15 AM 44.6 °F 41.4 °F 42.8 °F 93% 29.19 in 5.0 mi NW 5.8 mph - 0.01 in   Drizzle
12:16 AM 44.6 °F 41.4 °F 42.8 °F 93% 29.19 in 5.0 mi NW 5.8 mph - 0.01 in Rain Rain
12:35 AM 44.6 °F 40.2 °F 42.8 °F 93% 29.18 in 7.0 mi NW 8.1 mph - 0.01 in Rain Light Rain
12:36 AM 44.6 °F 40.7 °F 42.8 °F 93% 29.18 in 7.0 mi NW 6.9 mph - 0.01 in Rain Light Rain
12:55 AM 44.6 °F 40.2 °F 42.8 °F 93% 29.18 in 7.0 mi WNW 8.1 mph - 0.01 in Rain Rain
1:15 AM 44.6 °F 39.2 °F 42.8 °F 93% 29.18 in 7.0 mi WNW 10.4 mph - N/A   Drizzle
1:35 AM 42.8 °F 36.6 °F 41.0 °F 93% 29.18 in 10.0 mi NW 11.5 mph - N/A   Drizzle
1:56 AM 42.8 °F 37.5 °F 41.0 °F 93% 29.18 in 10.0 mi NW 9.2 mph 18.4 mph N/A   Light Drizzle
2:15 AM 42.8 °F 37.5 °F 41.0 °F 93% 29.18 in 10.0 mi NW 9.2 mph - N/A Rain Light Rain
2:35 AM 42.8 °F 38.0 °F 39.2 °F 87% 29.18 in 10.0 mi NW 8.1 mph - 0.01 in Rain Rain
2:55 AM 41.0 °F 34.3 °F 39.2 °F 93% 29.18 in 7.0 mi NW 11.5 mph - 0.01 in Rain Rain
3:15 AM 41.0 °F 35.2 °F 39.2 °F 93% 29.18 in 7.0 mi WNW 9.2 mph - 0.01 in Rain Rain
3:35 AM 41.0 °F 34.7 °F 39.2 °F 93% 29.18 in 5.0 mi WNW 10.4 mph - 0.01 in Rain Heavy Rain
3:36 AM 41.0 °F 35.2 °F 39.2 °F 93% 29.18 in 5.0 mi WNW 9.2 mph - 0.01 in Rain Rain
3:55 AM 41.0 °F 34.7 °F 39.2 °F 93% 29.18 in 7.0 mi WNW 10.4 mph - N/A Rain Rain
4:15 AM 41.0 °F 34.7 °F 39.2 °F 93% 29.18 in 5.0 mi WNW 10.4 mph - N/A Rain Rain
4:16 AM 41.0 °F 34.7 °F 39.2 °F 93% 29.18 in 5.0 mi WNW 10.4 mph - 0.01 in Rain Rain
4:35 AM 41.0 °F 34.7 °F 39.2 °F 93% 29.18 in 7.0 mi WNW 10.4 mph 17.3 mph N/A Rain Rain
4:36 AM 41.0 °F 35.2 °F 39.2 °F 93% 29.18 in 7.0 mi WNW 9.2 mph 17.3 mph 0.01 in Rain Rain
4:55 AM 41.0 °F 34.7 °F 39.2 °F 93% 29.18 in 10.0 mi WNW 10.4 mph 16.1 mph 0.01 in Rain Light Rain
4:56 AM 41.0 °F 34.3 °F 39.2 °F 93% 29.18 in 10.0 mi WNW 11.5 mph 16.1 mph N/A Rain Light Rain
5:15 AM 41.0 °F 34.3 °F 39.2 °F 93% 29.18 in 7.0 mi WNW 11.5 mph 18.4 mph 0.01 in Rain Light Rain
5:35 AM 41.0 °F 34.7 °F 39.2 °F 93% 29.18 in 3.0 mi WNW 10.4 mph 16.1 mph 0.01 in Rain Light Rain
5:55 AM 41.0 °F 34.7 °F 39.2 °F 93% 29.19 in 3.0 mi WNW 10.4 mph 17.3 mph 0.01 in Rain Light Rain
5:56 AM 41.0 °F 34.3 °F 39.2 °F 93% 29.19 in 3.0 mi WNW 11.5 mph 17.3 mph N/A Rain Light Rain
6:15 AM 41.0 °F 35.2 °F 39.2 °F 93% 29.19 in 5.0 mi NW 9.2 mph 17.3 mph N/A Rain Light Rain
6:35 AM 41.0 °F 34.3 °F 39.2 °F 93% 29.19 in 10.0 mi WNW 11.5 mph 17.3 mph 0.01 in Rain Light Rain
6:55 AM 41.0 °F 33.5 °F 39.2 °F 93% 29.19 in 10.0 mi WNW 13.8 mph 19.6 mph 0.01 in Rain Light Rain
7:15 AM 41.0 °F 33.5 °F 39.2 °F 93% 29.19 in 10.0 mi NW 13.8 mph 21.9 mph N/A   Overcast
7:35 AM 41.0 °F 32.5 °F 39.2 °F 93% 29.19 in 10.0 mi NW 17.3 mph 24.2 mph N/A   Overcast
7:55 AM 41.0 °F 33.5 °F 39.2 °F 93% 29.20 in 10.0 mi WNW 13.8 mph 21.9 mph N/A   Overcast
8:15 AM 41.0 °F 33.1 °F 39.2 °F 93% 29.20 in 7.0 mi WNW 15.0 mph 21.9 mph N/A   Overcast
8:16 AM 41.0 °F 33.1 °F 39.2 °F 93% 29.20 in 7.0 mi WNW 15.0 mph 21.9 mph N/A   Overcast
8:35 AM 41.0 °F 34.3 °F 39.2 °F 93% 29.21 in 4.0 mi WNW 11.5 mph 18.4 mph N/A Rain Light Rain
8:36 AM 41.0 °F 34.3 °F 39.2 °F 93% 29.21 in 4.0 mi WNW 11.5 mph 18.4 mph N/A Rain Light Rain
8:55 AM 41.0 °F 33.1 °F 39.2 °F 93% 29.21 in 4.0 mi WNW 15.0 mph 21.9 mph N/A   Drizzle
9:15 AM 41.0 °F 32.2 °F 39.2 °F 93% 29.22 in 7.0 mi WNW 18.4 mph 23.0 mph 0.01 in Rain Light Rain
9:16 AM 41.0 °F 32.5 °F 39.2 °F 93% 29.22 in 5.0 mi WNW 17.3 mph 23.0 mph 0.01 in Rain Light Rain
9:35 AM 41.0 °F 32.8 °F 39.2 °F 93% 29.23 in 3.0 mi West 16.1 mph 24.2 mph 0.01 in   Drizzle
9:55 AM 39.2 °F 30.5 °F 39.2 °F 100% 29.23 in 3.0 mi WNW 16.1 mph 25.3 mph 0.01 in   Light Drizzle
9:56 AM 39.2 °F 30.5 °F 37.4 °F 93% 29.23 in 3.0 mi WNW 16.1 mph 25.3 mph N/A   Light Drizzle
10:15 AM 39.2 °F 30.2 °F 39.2 °F 100% 29.24 in 3.0 mi WNW 17.3 mph 28.8 mph N/A Rain Light Rain
10:35 AM 39.2 °F 29.8 °F 39.2 °F 100% 29.24 in 3.0 mi WNW 18.4 mph 26.5 mph N/A   Overcast
10:36 AM 39.2 °F 29.3 °F 39.2 °F 100% 29.24 in 3.0 mi WNW 20.7 mph 28.8 mph N/A   Overcast
10:55 AM 39.2 °F 30.5 °F 37.4 °F 93% 29.25 in 10.0 mi West 16.1 mph 29.9 mph N/A   Overcast
11:15 AM 39.2 °F 29.8 °F 37.4 °F 93% 29.26 in 10.0 mi West 18.4 mph 23.0 mph N/A   Light Drizzle
11:16 AM 39.2 °F 29.8 °F 37.4 °F 93% 29.26 in 10.0 mi West 18.4 mph 24.2 mph N/A   Light Drizzle
11:35 AM 39.2 °F 30.2 °F 37.4 °F 93% 29.26 in 10.0 mi WNW 17.3 mph 28.8 mph N/A   Overcast
11:55 AM 39.2 °F 30.5 °F 37.4 °F 93% 29.27 in 10.0 mi WNW 16.1 mph 29.9 mph N/A   Overcast
12:15 PM 41.0 °F 31.4 °F 37.4 °F 87% 29.28 in 7.0 mi WNW 21.9 mph 28.8 mph N/A   Overcast
12:16 PM 41.0 °F 32.2 °F 37.4 °F 87% 29.28 in 7.0 mi WNW 18.4 mph 28.8 mph N/A   Overcast
12:35 PM 41.0 °F 32.5 °F 37.4 °F 87% 29.28 in 4.0 mi WNW 17.3 mph 27.6 mph N/A   Overcast
12:55 PM 41.0 °F 31.6 °F 37.4 °F 87% 29.29 in 3.0 mi West 20.7 mph 26.5 mph N/A   Overcast
12:56 PM 41.0 °F 32.5 °F 37.4 °F 87% 29.29 in 3.0 mi West 17.3 mph 26.5 mph N/A   Overcast
1:15 PM 42.8 °F 34.3 °F 37.4 °F 81% 29.29 in 4.0 mi WNW 19.6 mph 31.1 mph N/A   Overcast
1:35 PM 41.0 °F 31.9 °F 37.4 °F 87% 29.29 in 3.0 mi West 19.6 mph 25.3 mph N/A   Overcast
1:55 PM 42.8 °F 34.0 °F 37.4 °F 81% 29.30 in 4.0 mi West 20.7 mph 28.8 mph N/A   Overcast
1:56 PM 42.8 °F 33.5 °F 37.4 °F 81% 29.30 in 4.0 mi West 23.0 mph 28.8 mph N/A   Overcast
2:15 PM 41.0 °F 31.9 °F 37.4 °F 87% 29.31 in 4.0 mi West 19.6 mph 32.2 mph N/A   Overcast
2:35 PM 41.0 °F 32.8 °F 37.4 °F 87% 29.32 in 4.0 mi West 16.1 mph 28.8 mph N/A   Overcast
2:36 PM 41.0 °F 32.2 °F 37.4 °F 87% 29.32 in 4.0 mi West 18.4 mph 28.8 mph N/A   Overcast
2:55 PM 41.0 °F 32.2 °F 37.4 °F 87% 29.33 in 4.0 mi West 18.4 mph 29.9 mph N/A   Overcast
3:15 PM 39.2 °F 30.2 °F 35.6 °F 87% 29.34 in 7.0 mi West 17.3 mph 28.8 mph N/A   Overcast
3:35 PM 39.2 °F 29.8 °F 37.4 °F 93% 29.35 in 5.0 mi West 18.4 mph 25.3 mph N/A   Overcast
3:55 PM 39.2 °F 30.2 °F 35.6 °F 87% 29.37 in 4.0 mi West 17.3 mph 32.2 mph N/A Rain Rain
4:15 PM 39.2 °F 28.7 °F 35.6 °F 87% 29.38 in 7.0 mi West 23.0 mph 28.8 mph N/A   Light Drizzle
4:35 PM 39.2 °F 30.2 °F 35.6 °F 87% 29.39 in 10.0 mi West 17.3 mph 28.8 mph N/A   Overcast
4:36 PM 39.2 °F 30.2 °F 35.6 °F 87% 29.39 in 10.0 mi West 17.3 mph 28.8 mph N/A   Overcast
4:55 PM 39.2 °F 29.6 °F 35.6 °F 87% 29.40 in 7.0 mi West 19.6 mph 27.6 mph N/A   Overcast
4:56 PM 39.2 °F 30.5 °F 35.6 °F 87% 29.40 in 5.0 mi West 16.1 mph 27.6 mph N/A   Overcast
5:15 PM 39.2 °F 29.6 °F 35.6 °F 87% 29.41 in 7.0 mi West 19.6 mph 25.3 mph N/A   Overcast
5:35 PM 39.2 °F 30.5 °F 35.6 °F 87% 29.42 in 5.0 mi West 16.1 mph 26.5 mph N/A   Light Drizzle
5:55 PM 37.4 °F 28.5 °F 35.6 °F 93% 29.43 in 7.0 mi West 15.0 mph 27.6 mph N/A   Overcast
5:56 PM 37.4 °F 27.8 °F 35.6 °F 93% 29.43 in 7.0 mi West 17.3 mph 26.5 mph N/A   Overcast
6:15 PM 37.4 °F 28.2 °F 35.6 °F 93% 29.44 in 5.0 mi West 16.1 mph 25.3 mph N/A   Overcast
6:35 PM 37.4 °F 28.2 °F 35.6 °F 93% 29.45 in 5.0 mi West 16.1 mph 24.2 mph N/A   Drizzle
6:36 PM 37.4 °F 28.2 °F 35.6 °F 93% 29.45 in 5.0 mi West 16.1 mph 24.2 mph N/A   Drizzle
6:55 PM 37.4 °F 28.5 °F 35.6 °F 93% 29.46 in 5.0 mi West 15.0 mph 24.2 mph N/A   Drizzle
7:15 PM 37.4 °F 28.5 °F 33.8 °F 87% 29.47 in 10.0 mi West 15.0 mph 24.2 mph N/A   Overcast
7:35 PM 37.4 °F 28.2 °F 33.8 °F 87% 29.47 in 10.0 mi West 16.1 mph 28.8 mph N/A   Overcast
7:55 PM 37.4 °F 27.2 °F 33.8 °F 87% 29.48 in 10.0 mi West 19.6 mph 26.5 mph N/A   Overcast
8:15 PM 37.4 °F 28.5 °F 33.8 °F 87% 29.49 in 10.0 mi West 15.0 mph 25.3 mph N/A   Overcast
8:16 PM 37.4 °F 27.5 °F 33.8 °F 87% 29.49 in 10.0 mi West 18.4 mph 25.3 mph N/A   Overcast
8:35 PM 37.4 °F 27.8 °F 33.8 °F 87% 29.49 in 10.0 mi West 17.3 mph 25.3 mph N/A   Overcast
8:55 PM 37.4 °F 28.5 °F 33.8 °F 87% 29.50 in 10.0 mi West 15.0 mph 24.2 mph N/A   Overcast
9:35 PM 37.4 °F 27.8 °F 33.8 °F 87% 29.51 in 10.0 mi West 17.3 mph 26.5 mph N/A   Overcast
9:55 PM 37.4 °F 29.3 °F 33.8 °F 87% 29.52 in 10.0 mi West 12.7 mph 21.9 mph N/A   Overcast
9:56 PM 37.4 °F 29.3 °F 33.8 °F 87% 29.52 in 10.0 mi West 12.7 mph 20.7 mph N/A   Overcast
10:15 PM 37.4 °F 28.2 °F 32.0 °F 81% 29.53 in 10.0 mi West 16.1 mph 21.9 mph N/A   Overcast
10:35 PM 37.4 °F 28.5 °F 32.0 °F 81% 29.54 in 10.0 mi West 15.0 mph 21.9 mph N/A   Overcast
10:55 PM 37.4 °F 29.3 °F 33.8 °F 87% 29.55 in 10.0 mi West 12.7 mph 17.3 mph N/A Rain Light Rain
11:15 PM 35.6 °F 26.6 °F 33.8 °F 93% 29.55 in 10.0 mi West 13.8 mph 19.6 mph N/A Rain Light Rain
11:16 PM 35.6 °F 26.2 °F 33.8 °F 93% 29.55 in 10.0 mi West 15.0 mph 19.6 mph N/A Rain Light Rain
11:35 PM 35.6 °F 26.6 °F 33.8 °F 93% 29.56 in 10.0 mi West 13.8 mph 19.6 mph N/A   Overcast
11:36 PM 35.6 °F 26.2 °F 33.8 °F 93% 29.55 in 10.0 mi West 15.0 mph 19.6 mph N/A   Overcast
11:55 PM 37.4 °F 29.3 °F 32.0 °F 81% 29.56 in 10.0 mi West 12.7 mph 20.7 mph N/A   Overcast